User: anonymous   Login
Location: Unspecified
(0.0000°N, 0.0000°E)
Time: 12:28:49
(UTC+00:00)
Language:

NNS O-23 - Orbit

View from above orbital plane
View from above orbital plane
View from above satellite
View from above satellite

Ground track
Ground track

The orbit data is extracted from the following two-line orbital elements,

1 19070U 88033A   18347.87368229 +.00000075 +00000-0 +13089-3 0  9993
2 19070 090.3691 292.7760 0192401 086.3025 327.4076 13.27439213483426
Epoch (UTC): 13 December 2018 20:58:06
Eccentricity: 0.0192401
inclination: 90.3691°
perigee height: 1011 km
apogee height: 1301 km
right ascension of ascending node: 292.7760°
argument of perigee: 86.3025°
revolutions per day: 13.27439213
mean anomaly at epoch: 327.4076°
orbit number at epoch: 48342

The dashed part of the orbit path shows where the satellite is in the earth's shadow,  

DLR